Location: Pacific
(38.4820°N, 90.7415°W)
Time: 05:36:57
(UTC+00:00)

Daily predictions for brighter satellites

Satellite Brightness Start Highest point End
(mag) Time Altitude Azimuth Time Altitude Azimuth Time Altitude Azimuth
Cosmos 1378 Rocket 3.5 00:00:30 10° S 00:04:49 84° E 00:09:07 10° N
Resurs 01 Rocket 2.9 00:05:11 10° ESE 00:08:17 19° ENE 00:11:23 10° NNE
SJ-12 4.1 00:04:38 10° S 00:08:25 72° WSW 00:12:13 10° NNW
GP-B 3.1 00:05:31 10° S 00:09:52 89° WSW 00:14:15 10° N
CZ-4 R/B 4.3 00:06:28 10° SSE 00:10:24 67° ENE 00:14:21 10° N
ARIANE 5 R/B 2.9 00:05:47 10° S 00:10:54 70° WSW 00:15:59 10° NNW
Cosmos 158 Rocket 4.1 00:08:00 10° SSW 00:12:50 72° WNW 00:17:41 10° NNE
PSLV R/B 4.3 00:09:48 10° SE 00:13:19 28° ENE 00:16:50 10° NNE
SKYMED 2 3.6 00:10:26 10° NNE 00:14:48 87° WNW 00:19:08 10° SSW
COSMO-SKYMED 1 2.6 00:11:27 10° NNE 00:15:28 51° E 00:19:27 10° S
SeaSat 1 2.4 00:10:39 10° SSE 00:15:31 87° ENE 00:20:28 10° NNW
SEDSat Delta rocket 4.2 00:13:34 10° WSW 00:17:14 30° S 00:20:47 10° ESE
CZ-2D R/B 4.1 00:15:39 10° S 00:18:34 42° W 00:21:31 10° NNW
ATLAS 5 CENTAUR R/B 1.8 00:14:04 10° NNW 00:18:37 73° NE 00:24:17 10° SE
COSMOS 2428 2.9 00:13:34 10° NNW 00:19:06 48° ENE 00:24:37 10° SE
Resurs 1-3 3.5 00:15:59 10° SSE 00:20:11 60° ENE 00:24:26 10° N
Cosmos 1025 Rocket 2.9 00:18:09 10° S 00:22:23 69° E 00:26:41 10° NNE
ATLAS 3B R/B 4.2 00:15:28 10° NW 00:22:38 44° WSW 00:29:19 10° S
SJ-6B 4.2 00:22:10 14° E 00:22:45 14° ENE 00:24:39 10° NE
Cosmos 2237 Rocket 3.3 00:23:01 10° N 00:27:35 24° NE 00:31:38 12° ESE
NOSS 3-3 (C) 3.8 00:26:08 10° SW 00:31:08 75° NW 00:37:00 10° NNE
CZ-2D R/B 3.2 00:29:53 10° SSE 00:33:42 69° ENE 00:37:38 10° N
Cosmos 2219 Rocket 3.8 00:31:46 10° NW 00:36:52 38° WSW 00:41:57 10° S
Cosmos 1315 Rocket 3.0 00:34:19 10° NNW 00:38:05 68° W 00:41:51 10° S
Lacrosse 5 rocket 3.8 00:38:08 10° NW 00:38:37 10° NNW 00:39:07 10° NNW
BREEZE-M DEB (TANK) 3.2 00:35:01 10° NW 00:38:38 82° NNE 00:44:20 10° ESE
Cosmos 2346 Rocket 4.4 00:33:04 10° S 00:39:19 78° E 00:45:35 10° N
Cosmos 1674 Rocket 4.3 00:35:15 10° SSW 00:39:31 57° W 00:43:52 10° N
Helios 1A Rocket 3.2 00:41:46 25° ENE 00:42:34 28° E 00:45:24 10° SSE
Cosmos 2322 3.7 00:37:23 10° NNW 00:43:08 87° ENE 00:48:51 10° SSE
Aureole 3 Rocket 2.7 00:41:21 10° N 00:45:01 43° ENE 00:48:02 10° SSE
Tiangong -1.6 00:42:14 10° SW 00:45:16 44° SSE 00:46:23 30° ESE
USA 234 3.9 00:40:20 10° SSE 00:46:46 59° SW 00:53:13 10° NW
Cosmos 2227 Rocket 2.9 00:43:31 10° SSE 00:48:21 30° ESE 00:51:13 20° ENE
BlueWalker 3 4.0 00:45:46 10° WNW 00:48:44 25° SW 00:51:42 10° S
Cosmos 1447 Rocket 4.4 00:43:01 10° S 00:49:09 85° E 00:55:18 10° N
SL-16 R/B 4.2 00:49:19 10° NNE 00:49:59 11° NE 00:49:59 11° NE
CARTOSAT-1 3.4 00:54:29 10° SSE 00:58:40 88° W 01:02:53 10° NNW
Cosmos 2285 Rocket 4.0 00:55:46 10° NNW 01:02:10 65° ENE 01:08:29 10° SSE
Cosmos 1891 Rocket 4.5 00:57:22 10° N 01:03:46 66° E 01:10:11 10° SSE
Delta 2 Rocket 3.2 01:08:33 10° WSW 01:11:33 45° S 01:11:33 45° S
Atlas Centaur 2 3.3 01:08:39 10° WSW 01:15:42 43° S 01:18:41 27° SE
Cosmos 1975 Rocket 2.9 01:13:04 10° S 01:17:22 63° E 01:19:28 29° NNE
CRYOSAT 2 4.4 01:12:39 10° N 01:17:33 79° W 01:22:25 10° S
Cosmos 2344 3.7 01:09:36 10° S 01:17:48 51° ESE 01:21:26 29° ENE
Cosmos 1072 Rocket 4.4 01:13:59 10° N 01:20:07 58° E 01:26:09 10° SSE
Cosmos 1513 Rocket 4.4 01:13:49 10° N 01:20:08 79° E 01:26:30 10° S
IRAS Rocket 4.1 01:14:46 10° SSE 01:20:21 82° ENE 01:26:00 10° NNW
Cosmos 1455 Rocket 2.9 01:18:05 10° N 01:22:23 89° WNW 01:26:41 10° S
NOSS 3-4 (A) 4.2 01:16:33 10° NNW 01:23:07 44° NE 01:25:08 37° E
NOSS 3-4 (C) 4.2 01:16:49 10° NNW 01:23:24 43° NE 01:25:21 37° E
CZ-4C R/B 4.2 01:28:25 10° WNW 01:31:18 17° NW 01:34:36 10° N
BREEZE-M (TANK) 3.5 01:28:50 10° NW 01:32:07 58° NE 01:33:22 48° E
CSL-04 Rocket 3.8 01:33:44 48° NE 01:33:44 48° NE 01:38:07 10° N
Cosmos 2297 Rocket 3.2 01:27:47 10° SW 01:33:11 44° WNW 01:38:35 10° N
Cosmos 1125 Rocket 4.3 01:33:25 10° NNW 01:38:26 51° WSW 01:43:25 10° S
Resurs 01 Rocket 3.1 01:40:20 10° SSW 01:44:21 35° W 01:48:24 10° NNW
Cosmos 1464 Rocket 3.9 01:41:45 10° N 01:48:09 89° E 01:54:25 10° S
Cosmos 44 Rocket 4.2 01:49:57 10° SW 01:54:37 46° NW 01:55:59 37° NNW
Cosmos 2263 Rocket 3.0 02:00:18 10° SSW 02:03:45 39° SSW 02:03:45 39° SSW
Cosmos 1980 4.5 02:00:50 10° NW 02:06:15 49° WSW 02:08:37 30° SSW
Cosmos 2237 Rocket 3.0 02:06:24 10° NW 02:11:50 48° WSW 02:13:33 36° SSW
BREEZE-M DEB (TANK) 4.3 02:14:08 10° WNW 02:19:07 67° SW 02:22:02 45° SSE
Cosmos 2227 Rocket 3.6 02:27:07 10° SW 02:32:14 35° WNW 02:33:08 33° NW
SL-16 R/B 4.2 02:30:17 10° NNW 02:31:53 20° NNW 02:31:53 20° NNW
Atlas Centaur 2 4.4 02:57:45 10° WSW 03:00:37 22° WSW 03:00:37 22° WSW
Cosmos 1697 Rocket 3.1 10:21:48 59° ESE 10:22:00 59° ESE 10:27:34 10° NNE
Cosmos 2344 4.2 10:19:46 24° NNW 10:25:32 72° NE 10:37:09 10° SE
Cosmos 2297 Rocket 2.4 10:27:48 62° NNE 10:28:25 67° ENE 10:34:01 10° SSE
In-Cosmos 22 Rocket 4.4 10:23:55 10° N 10:29:45 74° E 10:35:32 10° SSE
Meteor 2-21 4.3 10:24:18 10° N 10:30:27 88° E 10:36:30 10° S
OAO 2 Rocket 4.1 10:34:33 44° SSE 10:34:33 44° SSE 10:38:30 10° ESE
COSMOS 2455 3.7 10:29:37 20° S 10:33:35 47° ESE 10:39:19 10° NE
Cosmos 967 Rocket 4.4 10:38:41 70° SW 10:39:29 84° WNW 10:46:00 10° NNE
Meteor 2-15 Rocket 4.3 10:42:24 67° NW 10:42:24 67° NW 10:48:09 10° N
Cosmos 2239 Rocket 4.3 10:41:38 48° SSW 10:43:28 77° W 10:49:45 10° N
NOSS 2-1 (E) 4.1 10:52:15 45° NE 10:52:15 45° NE 10:54:39 10° NE
SL-24 R/B 4.5 10:49:03 10° N 10:54:07 86° WNW 10:59:51 10° SSW
Cosmos 2263 Rocket 3.9 10:55:30 10° N 11:00:29 30° ENE 11:05:23 10° ESE
COSMO-SKYMED 1 4.5 10:59:05 10° SE 11:02:34 28° ENE 11:06:06 10° NNE
Cosmos 2292 Rocket 4.2 10:58:00 10° N 11:03:04 86° E 11:09:30 10° S
Cosmos 1000 Rocket 4.4 10:59:44 10° NNW 11:06:00 68° W 11:12:15 10° S
SKYMED 2 4.1 11:03:38 10° SSE 11:07:54 60° ENE 11:12:11 10° N
Cosmos 2123 Rocket 3.9 11:08:45 10° N 11:15:00 83° W 11:21:10 10° S
CZ-2C R/B 4.5 11:14:07 10° NNW 11:14:31 12° NNW 11:14:31 12° NNW
NOSS 3-1 (C) 2.9 11:17:01 16° SSW 11:20:31 75° ESE 11:25:41 10° NE
SL-4 R/B 3.9 11:22:30 15° N 11:24:02 19° NNE 11:26:45 10° ENE
USA 59 Rocket 1.1 11:25:48 19° N 11:25:48 19° N 11:27:05 10° N
Aureole 3 3.9 11:21:17 10° NNW 11:26:34 51° W 11:30:54 10° SSW
Cosmos 2227 Rocket 2.2 11:21:45 10° NNW 11:27:27 85° ENE 11:33:07 10° SSE
Cosmos 1908 Rocket 3.9 11:23:57 10° S 11:28:13 64° E 11:32:32 10° NNE
USA 215 3.9 11:26:36 10° ESE 11:32:56 54° NE 11:39:19 10° NW
Cosmos 1733 Rocket 4.2 11:34:19 25° NW 11:34:19 25° NW 11:36:55 10° NNW
NOAA 12 4.0 11:28:14 10° N 11:33:26 62° WNW 11:38:39 10° SSW
Cosmos 2221 Rocket 4.3 11:30:36 10° N 11:35:05 58° E 11:39:31 10° SSE
Cosmos 1535 Rocket 4.5 11:29:14 10° S 11:35:37 82° W 11:42:02 10° N
IRS-1D 3.5 11:32:13 10° N 11:37:22 62° WNW 11:42:22 10° SSW
CZ-4 R/B 3.8 11:33:08 10° N 11:38:07 75° WNW 11:43:03 10° SSW
Cosmos 1400 Rocket 3.8 11:37:07 10° S 11:40:43 46° E 11:44:24 10° NNE
Cosmos 1934 Rocket 4.3 11:40:15 10° SSW 11:45:55 41° WNW 11:51:43 10° N
Cosmos 1503 Rocket 3.9 11:41:07 10° SSW 11:46:13 67° WNW 11:51:25 10° NNE
Meteor 1-11 4.4 11:40:50 10° NNW 11:46:29 52° W 11:52:08 10° SSW
Intercosmos 25 Rocket 2.8 11:44:25 10° NNW 11:47:40 61° W 11:50:51 10° S
Cosmos 1378 Rocket 4.1 11:46:48 10° NNW 11:50:39 34° W 11:54:31 10° SSW
Cosmos 1484 Rocket 3.3 11:47:57 10° NNE 11:51:24 55° E 11:54:49 10° S
Cosmos 1980 Rocket 2.3 11:48:38 10° SW 11:54:04 53° WNW 11:59:33 10° NNE
